Weather History for Quincy, IL

Change the Weather History Date:

Tuesday, December 3, 2013

  Actual Average Record
Temperature  
Mean Temperature 46 °F 34 °F  
Max Temperature 56 °F 42 °F 74 °F (2012)
Min Temperature 35 °F 26 °F 1 °F (1929)
Degree Days  
Heating Degree Days 19 31  
Month to date heating degree days 67 92  
Since 1 July heating degree days 1200 1192  
Cooling Degree Days 0 0  
Month to date cooling degree days 0 0  
Year to date cooling degree days 1242 1094  
Moisture  
Dew Point 41 °F    
Average Humidity 89    
Maximum Humidity 100    
Minimum Humidity 77    
Precipitation  
Precipitation T in 0.09 in 1.68 in (1938)
Month to date precipitation T 0.27  
Year to date precipitation 34.59 35.35  
Sea Level Pressure  
Sea Level Pressure 29.63 in    
Wind  
Wind Speed 7 mph (SSE)    
Max Wind Speed 18 mph    
Max Gust Speed 22 mph    
Visibility 4 miles    
Events Rain    
T = Trace of Precipitation, MM = Missing Value Source: NWS Daily Summary

Daily Weather History Graph

Daily Weather History Graph

Search for Another Location

Airport:

Trip Planner

Search our weather history database for the weather conditions in past years. The results will help you decide how hot, cold, wet, or windy it might be!

Date:

Astronomy

Dec. 03, 2013 Rise Set
Actual Time 7:09 AM CST 4:39 PM CST
Civil Twilight 6:39 AM CST 5:09 PM CST
Nautical Twilight 6:05 AM CST 5:43 PM CST
Astronomical Twilight 5:33 AM CST 6:16 PM CST
Moon 7:39 AM CST (12/3) 5:43 PM CST (12/3)
Length of Visible Light 10h 30m
Length of Day
9h 30m
New Moon, 1% of the Moon is Illuminated
Dec 3
New Moon
Dec 9
First Quarter
Dec 17
Full
Dec 25
Last Quarter
Jan 1
New

Hourly Weather History & Observations

Time (CST) Temp. Windchill Dew Point Humidity Pressure Visibility Wind Dir Wind Speed Gust Speed Precip Events Conditions
12:04 AM 39.0 °F 35.7 °F 37.0 °F 93% 29.65 in 2.5 mi ESE 4.6 mph - N/A   Clear
12:15 AM 39.9 °F - 37.9 °F 93% 29.65 in 3.0 mi Calm Calm - N/A   Clear
12:54 AM 39.9 °F 35.1 °F 37.0 °F 89% 29.65 in 3.0 mi SE 6.9 mph - N/A   Clear
1:05 AM 39.0 °F 35.7 °F 37.0 °F 93% 29.64 in 2.5 mi SSE 4.6 mph - N/A   Clear
1:28 AM 39.9 °F 37.8 °F 37.9 °F 93% 29.64 in 3.0 mi ESE 3.5 mph - N/A   Clear
1:47 AM 37.9 °F 35.5 °F 36.0 °F 93% 29.63 in 2.5 mi East 3.5 mph - N/A   Clear
1:54 AM 37.9 °F 35.5 °F 36.0 °F 93% 29.65 in 2.5 mi East 3.5 mph - N/A   Clear
2:19 AM 36.0 °F 31.1 °F 34.0 °F 93% 29.63 in 1.2 mi East 5.8 mph - N/A   Clear
2:47 AM 39.0 °F 36.8 °F 37.0 °F 93% 29.63 in 2.0 mi SE 3.5 mph - N/A   Clear
2:54 AM 36.0 °F - 35.1 °F 97% 29.64 in 1.5 mi Calm Calm - N/A   Clear
3:40 AM 39.0 °F 35.7 °F 37.0 °F 93% 29.62 in 3.0 mi South 4.6 mph - N/A   Clear
3:54 AM 39.9 °F 36.7 °F 39.0 °F 97% 29.63 in 4.0 mi South 4.6 mph - N/A   Clear
4:24 AM 37.9 °F 34.4 °F 36.0 °F 93% 29.63 in 2.5 mi SW 4.6 mph - N/A   Clear
4:36 AM 37.0 °F 32.4 °F 36.0 °F 96% 29.63 in 1.2 mi SSW 5.8 mph - N/A   Clear
4:54 AM 39.9 °F 35.1 °F 37.9 °F 93% 29.63 in 3.0 mi South 6.9 mph - N/A   Clear
5:28 AM 35.1 °F 29.3 °F 34.0 °F 96% 29.63 in 2.5 mi South 6.9 mph - N/A   Clear
5:42 AM 37.9 °F 32.7 °F 35.1 °F 89% 29.64 in 3.0 mi South 6.9 mph - N/A   Clear
5:54 AM 39.0 °F 33.4 °F 36.0 °F 89% 29.65 in 3.0 mi South 8.1 mph - N/A   Clear
6:54 AM 43.0 °F 39.5 °F 39.9 °F 89% 29.64 in 5.0 mi SSE 5.8 mph - N/A   Scattered Clouds
7:26 AM 41.0 °F 36.4 °F 37.9 °F 89% 29.64 in 2.5 mi South 6.9 mph - N/A   Clear
7:38 AM 42.1 °F 37.1 °F 39.0 °F 89% 29.63 in 3.0 mi South 8.1 mph - N/A   Clear
7:54 AM 42.1 °F 36.6 °F 39.9 °F 92% 29.64 in 3.0 mi South 9.2 mph - N/A   Clear
8:54 AM 45.0 °F 41.2 °F 43.0 °F 93% 29.63 in 4.0 mi SSE 6.9 mph - N/A   Clear
9:38 AM 46.9 °F - 44.1 °F 90% 29.64 in 4.0 mi South 10.4 mph - N/A   Partly Cloudy
9:54 AM 46.9 °F - 45.0 °F 93% 29.65 in 4.0 mi South 11.5 mph - N/A   Partly Cloudy
10:54 AM 48.9 °F - 45.0 °F 86% 29.65 in 5.0 mi South 9.2 mph - N/A   Scattered Clouds
11:17 AM 48.9 °F - 45.0 °F 86% 29.64 in 6.0 mi South 9.2 mph - N/A   Mostly Cloudy
11:42 AM 50.0 °F - 46.0 °F 86% 29.65 in 5.0 mi SSW 11.5 mph - N/A   Overcast
11:54 AM 51.1 °F - 46.0 °F 83% 29.67 in 6.0 mi SW 10.4 mph - N/A   Haze
12:43 PM 52.0 °F - 46.0 °F 80% 29.64 in 6.0 mi South 11.5 mph - N/A   Haze
12:54 PM 51.1 °F - 46.0 °F 83% 29.64 in 5.0 mi South 9.2 mph - N/A   Haze
1:22 PM 51.1 °F - 46.9 °F 86% 29.58 in 5.0 mi SSE 16.1 mph - 0.00 in Rain Light Rain
1:54 PM 54.0 °F - 48.0 °F 80% 29.57 in 6.0 mi SSE 16.1 mph - 0.00 in   Haze
2:54 PM 55.0 °F - 48.0 °F 77% 29.58 in 7.0 mi South 11.5 mph - N/A   Clear
3:54 PM 54.0 °F - 48.0 °F 80% 29.58 in 7.0 mi SSE 8.1 mph - N/A   Clear
4:54 PM 48.9 °F - 46.0 °F 90% 29.60 in 4.0 mi SE 5.8 mph - N/A   Clear
5:54 PM 48.9 °F - 46.0 °F 90% 29.62 in 6.0 mi SSE 4.6 mph - N/A   Clear
6:54 PM 48.0 °F - 45.0 °F 89% 29.63 in 6.0 mi SE 4.6 mph - N/A   Clear
7:54 PM 48.0 °F - 45.0 °F 89% 29.65 in 6.0 mi ESE 5.8 mph - N/A   Clear
8:54 PM 46.9 °F - 45.0 °F 93% 29.65 in 5.0 mi SE 6.9 mph - N/A   Clear
9:54 PM 44.1 °F 39.0 °F 41.0 °F 89% 29.63 in 4.0 mi SE 9.2 mph - N/A   Clear
10:54 PM 44.1 °F 40.1 °F 42.1 °F 93% 29.64 in 5.0 mi SSE 6.9 mph - N/A   Clear
11:54 PM 46.0 °F 43.9 °F 43.0 °F 89% 29.66 in 5.0 mi South 4.6 mph - N/A   Clear